Location: Casteau
(50.5142°N, 4.0161°E)
Time: 19:10:14
(UTC+00:00)

Tiros 1 - Pass Details

Date: 01 August 2021
Orbit: 630 x 663 km, 48.4° (Epoch: 28 September)

Event Time Altitude Azimuth Distance (km) Brightness Sun altitude
Rises 18:02:46 0° 227° (SW) 2,979 11.0 11.7°
Reaches altitude 10° 18:05:16 10° 218° (SW) 2,066 10.1 11.3°
Maximum altitude 18:09:35 35° 153° (SSE) 1,051 8.0 10.7°
Drops below altitude 10° 18:13:54 10° 88° (E) 2,055 9.2 10.0°
Sets 18:16:22 0° 80° (E) 2,962 10.0 9.6°
